Location: Lewisville
(33.0462°N, 96.9942°W)
Time: 00:53:21
(UTC-06:00)

Hubble Space Telescope - Visible Passes

Search period start: 30 November 2022 00:00
Search period end: 10 December 2022 00:00
Orbit: 530 x 534 km, 28.5° (Epoch: 29 November)

Date Brightness Start Highest point End Pass type
(mag) Time Alt. Az. Time Alt. Az. Time Alt. Az.
03 Dec 4.0 06:28:57 10° SSE 06:29:26 10° SSE 06:29:56 10° SSE visible
04 Dec 3.6 06:14:52 10° S 06:16:43 13° SSE 06:18:33 10° SE visible
05 Dec 3.4 06:01:32 10° SSW 06:03:59 15° SSE 06:06:26 10° ESE visible
06 Dec 3.2 05:48:24 10° SSW 05:51:16 18° SSE 05:54:07 10° ESE visible
07 Dec 2.9 05:36:09 14° SSW 05:38:32 21° SSE 05:41:42 10° ESE visible
08 Dec 2.5 05:24:40 22° S 05:25:49 25° SSE 05:29:12 10° ESE visible
09 Dec 2.3 05:13:04 28° SSE 05:13:07 28° SSE 05:16:39 10° ESE visible
09 Dec 1.7 06:49:57 10° WSW 06:53:50 43° S 06:57:44 10° ESE visible
